Location: Newark
(12.4436°N, 0.6167°W)
Time: 03:21:24
(UTC+00:00)

deb Explorer IX - Pass Details

Date: 10 December 2019
Orbit: 548 x 1101 km, 38.8° (Epoch: 20 January)

Event Time Altitude Azimuth Distance (km) Brightness Sun altitude
Rises 01:38:29 0° 281° (W) 3,865 - -63.3°
Reaches altitude 10° 01:42:28 10° 261° (W) 2,848 - -62.4°
Maximum altitude 01:46:29 16° 226° (SW) 2,336 - -61.5°
Drops below altitude 10° 01:50:18 10° 189° (S) 2,655 - -60.7°
Sets 01:53:51 0° 168° (SSE) 3,483 - -59.9°
